Hancock, MI

7:19 AM EDT on August 30, 2016 (GMT -0400)
Houghton County Memorial

Weather History for KCMX - October, 2012

Change the Weather History Date:

Thursday, October 18, 2012

  Actual Average Record
Temperature  
Mean Temperature 50 °F -  
Max Temperature 54 °F 47 °F 77 °F (1965)
Min Temperature 46 °F 34 °F 22 °F (1972)
Degree Days  
Heating Degree Days 15    
Moisture  
Dew Point 50 °F    
Average Humidity 97    
Maximum Humidity 100    
Minimum Humidity 93    
Precipitation  
Precipitation 0.41 in - - ()
Sea Level Pressure  
Sea Level Pressure 29.25 in    
Wind  
Wind Speed 8 mph (East)    
Max Wind Speed 20 mph    
Max Gust Speed 37 mph    
Visibility 5 miles    
Events Fog , Rain    
Averages and records for this station are not official NWS values.
T = Trace of Precipitation, MM = Missing Value Source: NWS Daily Summary

Daily Weather History Graph

Daily Weather History Graph

Search for Another Location

Airport or City:

Trip Planner

Search our weather history database for the weather conditions in past years. The results will help you decide how hot, cold, wet, or windy it might be!

Date:

Astronomy

Oct. 18, 2012 Rise Set
Actual Time 8:17 AM EDT 6:59 PM EDT
Civil Twilight 7:46 AM EDT 7:30 PM EDT
Nautical Twilight 7:10 AM EDT 8:06 PM EDT
Astronomical Twilight 6:35 AM EDT 8:41 PM EDT
Moon 12:13 PM EDT (10/18) 9:19 PM EDT (10/18)
Length of Visible Light 11h 44m
Length of Day
10h 42m
Waxing Crescent, 14% of the Moon is Illuminated
Oct 18
Waxing Crescent
Oct 21
First Quarter
Oct 29
Full
Nov 6
Last Quarter
Nov 13
New

Hourly Weather History & Observations

Time (EDT) Temp. Windchill Dew Point Humidity Pressure Visibility Wind Dir Wind Speed Gust Speed Precip Events Conditions
12:14 AM 53.6 °F - 51.8 °F 94% 29.27 in 7.0 mi East 5.8 mph - 0.01 in Rain Light Rain
12:37 AM 53.6 °F - 51.8 °F 94% 29.27 in 4.0 mi East 8.1 mph - 0.03 in Rain Light Rain
12:53 AM 53.1 °F - 52.0 °F 96% 29.27 in 4.0 mi East 6.9 mph - 0.03 in Rain Light Rain
1:28 AM 53.6 °F - 51.8 °F 94% 29.25 in 2.5 mi East 8.1 mph - 0.01 in Rain Light Rain
1:42 AM 53.6 °F - 51.8 °F 94% 29.25 in 1.8 mi East 10.4 mph - 0.02 in Rain Light Rain
1:50 AM 53.6 °F - 51.8 °F 94% 29.25 in 2.0 mi East 10.4 mph - 0.02 in Rain Light Rain
1:53 AM 53.1 °F - 52.0 °F 96% 29.25 in 2.0 mi East 9.2 mph - 0.02 in Rain Light Rain
2:01 AM 51.8 °F - 51.8 °F 100% 29.24 in 1.8 mi East 8.1 mph - 0.00 in Rain Light Rain
2:21 AM 53.6 °F - 51.8 °F 94% 29.23 in 2.5 mi East 8.1 mph - 0.01 in Rain Light Rain
2:48 AM 51.8 °F - 51.8 °F 100% 29.22 in 1.8 mi East 9.2 mph - 0.02 in Rain Light Rain
2:53 AM 52.0 °F - 52.0 °F 100% 29.23 in 1.5 mi East 6.9 mph - 0.02 in Rain Light Rain
3:44 AM 53.6 °F - 51.8 °F 94% 29.19 in 0.5 mi East 11.5 mph - 0.02 in Fog , Rain Light Rain
3:53 AM 53.1 °F - 53.1 °F 100% 29.19 in 0.5 mi East 10.4 mph - 0.02 in Fog , Rain Light Rain
4:02 AM 53.6 °F - 53.6 °F 100% 29.18 in 0.8 mi East 11.5 mph 20.7 mph 0.00 in   Mist
4:11 AM 53.6 °F - 53.6 °F 100% 29.17 in 0.5 mi East 12.7 mph 20.7 mph 0.00 in Fog Fog
4:35 AM 53.6 °F - 53.6 °F 100% 29.15 in 0.2 mi East 15.0 mph 23.0 mph 0.00 in Fog Fog
4:53 AM 54.0 °F - 53.1 °F 97% 29.15 in 0.2 mi East 16.1 mph 27.6 mph 0.00 in Fog Fog
5:33 AM 53.6 °F - 53.6 °F 100% 29.15 in 1.0 mi East 12.7 mph 21.9 mph N/A   Mist
5:42 AM 53.6 °F - 53.6 °F 100% 29.15 in 0.8 mi East 12.7 mph 29.9 mph N/A   Mist
5:53 AM 53.1 °F - 53.1 °F 100% 29.16 in 0.5 mi East 12.7 mph 26.5 mph N/A Fog Fog
6:05 AM 53.6 °F - 53.6 °F 100% 29.15 in 0.2 mi ESE 15.0 mph 27.6 mph N/A Fog Fog
6:28 AM 53.6 °F - 53.6 °F 100% 29.14 in 0.8 mi East 13.8 mph 25.3 mph 0.00 in Rain Light Rain
6:36 AM 53.6 °F - 53.6 °F 100% 29.14 in 2.0 mi East 16.1 mph 27.6 mph 0.00 in Rain Light Rain
6:45 AM 53.6 °F - 53.6 °F 100% 29.13 in 4.0 mi ESE 16.1 mph 25.3 mph 0.00 in Rain Light Rain
6:53 AM 53.1 °F - 53.1 °F 100% 29.14 in 5.0 mi ESE 13.8 mph 27.6 mph 0.00 in Rain Light Rain
7:53 AM 53.1 °F - 53.1 °F 100% 29.12 in 5.0 mi ESE 19.6 mph 36.8 mph 0.01 in   Overcast
8:01 AM 53.6 °F - 53.6 °F 100% 29.11 in 5.0 mi East 18.4 mph 32.2 mph N/A   Overcast
8:53 AM 53.1 °F - 53.1 °F 100% 29.12 in 9.0 mi ESE 16.1 mph 26.5 mph 0.00 in   Overcast
9:53 AM 53.1 °F - 53.1 °F 100% 29.13 in 8.0 mi East 10.4 mph - N/A   Overcast
10:01 AM 53.6 °F - 53.6 °F 100% 29.13 in 9.0 mi East 8.1 mph - N/A   Overcast
10:53 AM 53.1 °F - 52.0 °F 96% 29.17 in 10.0 mi ESE 11.5 mph - N/A   Overcast
11:53 AM 52.0 °F - 50.0 °F 93% 29.20 in 10.0 mi East 5.8 mph - 0.00 in   Overcast
12:37 PM 51.8 °F - 50.0 °F 94% 29.20 in 3.0 mi East 6.9 mph - 0.01 in Rain Light Rain
12:45 PM 51.8 °F - 50.0 °F 94% 29.20 in 2.5 mi East 5.8 mph - 0.03 in Rain Rain
12:53 PM 51.1 °F - 50.0 °F 96% 29.21 in 2.5 mi East 4.6 mph - 0.05 in Rain Rain
1:08 PM 51.8 °F - 50.0 °F 94% 29.20 in 1.0 mi East 5.8 mph - 0.02 in Rain Light Rain
1:15 PM 51.8 °F - 51.8 °F 100% 29.20 in 3.0 mi East 4.6 mph - 0.02 in Rain Light Rain
1:27 PM 51.8 °F - 50.0 °F 94% 29.20 in 7.0 mi ENE 4.6 mph - 0.03 in Rain Light Rain
1:37 PM 51.8 °F - 50.0 °F 94% 29.20 in 2.0 mi Calm Calm - 0.04 in Rain Light Rain
1:45 PM 51.8 °F - 50.0 °F 94% 29.20 in 2.5 mi Calm Calm - 0.04 in Rain Light Rain
1:48 PM 51.8 °F - 50.0 °F 94% 29.20 in 4.0 mi Calm Calm - 0.04 in Rain Light Rain
1:53 PM 51.1 °F - 50.0 °F 96% 29.21 in 5.0 mi Calm Calm - 0.05 in Rain Light Rain
2:16 PM 51.8 °F - 50.0 °F 94% 29.20 in 2.5 mi Calm Calm - 0.03 in Rain Light Rain
2:25 PM 51.8 °F - 50.0 °F 94% 29.20 in 3.0 mi Calm Calm - 0.04 in Rain Light Rain
2:30 PM 50.0 °F - 48.2 °F 94% 29.20 in 2.5 mi West 4.6 mph - 0.05 in Rain Rain
2:44 PM 50.0 °F - 48.2 °F 94% 29.21 in 3.0 mi WNW 5.8 mph - 0.06 in Rain Light Rain
2:53 PM 50.0 °F - 48.9 °F 96% 29.21 in 3.0 mi WNW 6.9 mph - 0.07 in Rain Light Rain
3:03 PM 50.0 °F - 48.2 °F 94% 29.21 in 5.0 mi NW 6.9 mph - 0.01 in Rain Light Rain
3:19 PM 50.0 °F - 48.2 °F 94% 29.21 in 5.0 mi NW 5.8 mph - 0.02 in Rain Light Rain
3:24 PM 50.0 °F - 48.2 °F 94% 29.21 in 6.0 mi NW 5.8 mph - 0.02 in Rain Light Rain
3:53 PM 48.9 °F - 48.0 °F 97% 29.24 in 6.0 mi NW 9.2 mph - 0.03 in Rain Light Rain
4:07 PM 48.2 °F - 48.2 °F 100% 29.23 in 2.5 mi NW 6.9 mph - 0.00 in Rain Light Rain
4:15 PM 48.2 °F - 48.2 °F 100% 29.23 in 5.0 mi NW 8.1 mph - 0.01 in Rain Light Rain
4:33 PM 48.2 °F - 48.2 °F 100% 29.24 in 2.0 mi WNW 6.9 mph - 0.01 in Rain Light Rain
4:43 PM 48.2 °F - 48.2 °F 100% 29.25 in 7.0 mi WNW 6.9 mph - 0.01 in   Overcast
4:53 PM 48.9 °F - 48.0 °F 97% 29.27 in 10.0 mi NW 4.6 mph - 0.01 in   Overcast
5:10 PM 48.2 °F - 48.2 °F 100% 29.26 in 1.8 mi NNW 4.6 mph - 0.02 in Rain Light Rain
5:18 PM 48.2 °F - 46.4 °F 93% 29.27 in 3.0 mi WNW 4.6 mph - 0.02 in Rain Light Rain
5:53 PM 48.0 °F - 46.9 °F 96% 29.31 in 2.5 mi Calm Calm - 0.06 in Rain Rain
6:09 PM 48.2 °F - 46.4 °F 93% 29.31 in 5.0 mi Variable 5.8 mph - 0.01 in Rain Light Rain
6:26 PM 48.2 °F - 48.2 °F 100% 29.32 in 10.0 mi Calm Calm - 0.02 in Rain Light Rain
6:36 PM 48.2 °F - 48.2 °F 100% 29.33 in 10.0 mi Calm Calm - 0.02 in Rain Light Rain
6:53 PM 48.9 °F - 48.0 °F 97% 29.34 in 10.0 mi Calm Calm - 0.03 in Rain Light Rain
7:19 PM 48.2 °F - 48.2 °F 100% 29.35 in 10.0 mi East 4.6 mph - 0.00 in Rain Light Rain
7:28 PM 48.2 °F - 48.2 °F 100% 29.35 in 2.0 mi East 4.6 mph - 0.00 in Rain Light Rain
7:35 PM 48.2 °F - 48.2 °F 100% 29.36 in 1.0 mi East 4.6 mph - 0.00 in Rain Light Rain
7:43 PM 48.2 °F - 48.2 °F 100% 29.36 in 4.0 mi East 3.5 mph - 0.00 in Rain Light Rain
7:53 PM 48.9 °F - 48.0 °F 97% 29.38 in 7.0 mi East 3.5 mph - 0.00 in   Overcast
8:06 PM 48.2 °F - 48.2 °F 100% 29.37 in 1.8 mi ESE 4.6 mph - 0.00 in Rain Light Rain
8:20 PM 48.2 °F - 48.2 °F 100% 29.37 in 3.0 mi East 4.6 mph - 0.00 in Rain Light Rain
8:36 PM 48.2 °F - 48.2 °F 100% 29.37 in 10.0 mi East 4.6 mph - 0.00 in   Overcast
8:53 PM 48.9 °F - 48.0 °F 97% 29.39 in 10.0 mi East 6.9 mph - 0.00 in   Overcast
9:14 PM 48.2 °F - 46.4 °F 93% 29.39 in 10.0 mi ESE 6.9 mph - 0.01 in   Overcast
9:29 PM 48.2 °F - 46.4 °F 93% 29.40 in 10.0 mi ESE 8.1 mph - 0.01 in   Overcast
9:50 PM 48.2 °F - 46.4 °F 93% 29.41 in 10.0 mi ESE 6.9 mph - 0.01 in   Overcast
9:53 PM 48.0 °F - 46.0 °F 93% 29.42 in 10.0 mi SE 5.8 mph - 0.01 in   Overcast
10:07 PM 48.2 °F - 46.4 °F 93% 29.41 in 10.0 mi SE 5.8 mph - N/A   Mostly Cloudy
10:53 PM 46.9 °F - 45.0 °F 93% 29.44 in 10.0 mi ESE 4.6 mph - N/A   Overcast
11:53 PM 46.0 °F 43.9 °F 45.0 °F 96% 29.47 in 10.0 mi ESE 4.6 mph - N/A   Overcast